| time (UTC) | temp C | wind direction | speed KPH | gust KPH | rain 1hr cm | rain 24hr cm | rain mn cm | humidity % | barometer mb |
| 20260903090110 | 14 | 240 | 1.6 | 8.0 | 0.00 | 0.00 | 0.00 | 85 | 1015.0 |
| 20260903084611 | 14 | 254 | 0.0 | 4.8 | 0.00 | 0.00 | 0.00 | 84 | 1015.1 |
| 20260903083111 | 14 | 255 | 1.6 | 8.0 | 0.00 | 0.00 | 0.00 | 83 | 1015.1 |
| 20260903081611 | 15 | 288 | 1.6 | 6.4 | 0.00 | 0.00 | 0.00 | 81 | 1015.0 |
| 20260903080110 | 15 | 254 | 1.6 | 8.0 | 0.00 | 0.00 | 0.00 | 80 | 1015.0 |
| 20260903074609 | 15 | 248 | 0.0 | 3.2 | 0.00 | 0.00 | 0.00 | 81 | 1015.0 |
| 20260903073110 | 15 | 244 | 0.0 | 6.4 | 0.00 | 0.00 | 0.00 | 80 | 1014.9 |
| 20260903071556 | 15 | 255 | 0.0 | 3.2 | 0.00 | 0.00 | 0.00 | 78 | 1015.0 |
| 20260903070040 | 16 | 248 | 0.0 | 0.0 | 0.00 | 0.00 | 0.00 | 75 | 1014.9 |
| 20260903064540 | 16 | 278 | 0.0 | 0.0 | 0.00 | 0.00 | 0.00 | 73 | 1014.9 |
| 20260903063107 | 16 | 283 | 0.0 | 0.0 | 0.00 | 0.00 | 0.00 | 72 | 1014.9 |
| 20260903061540 | 17 | 315 | 0.0 | 3.2 | 0.00 | 0.00 | 0.00 | 70 | 1014.9 |
| 20260903060039 | 17 | 307 | 0.0 | 6.4 | 0.00 | 0.00 | 0.00 | 68 | 1014.9 |
| 20260903054539 | 17 | 281 | 0.0 | 6.4 | 0.00 | 0.00 | 0.00 | 66 | 1014.9 |
| 20260903053110 | 18 | 283 | 0.0 | 1.6 | 0.00 | 0.00 | 0.00 | 66 | 1014.9 |
| 20260903051609 | 18 | 312 | 0.0 | 1.6 | 0.00 | 0.00 | 0.00 | 65 | 1014.9 |
| 20260903050129 | 18 | 319 | 0.0 | 0.0 | 0.00 | 0.00 | 0.00 | 65 | 1015.0 |
| 20260903044509 | 18 | 293 | 0.0 | 0.0 | 0.00 | 0.00 | 0.00 | 63 | 1015.0 |
| 20260903043039 | 19 | 293 | 0.0 | 0.0 | 0.00 | 0.00 | 0.00 | 61 | 1014.9 |
| 20260903041539 | 19 | 292 | 0.0 | 0.0 | 0.00 | 0.00 | 0.00 | 59 | 1014.7 |
| 20260903040039 | 20 | 288 | 0.0 | 3.2 | 0.00 | 0.00 | 0.00 | 57 | 1014.5 |
| 20260903034538 | 20 | 341 | 1.6 | 9.7 | 0.00 | 0.00 | 0.00 | 56 | 1014.1 |
| 20260903033024 | 20 | 335 | 0.0 | 8.0 | 0.00 | 0.00 | 0.00 | 55 | 1014.0 |
| 20260903031538 | 21 | 338 | 0.0 | 0.0 | 0.00 | 0.00 | 0.00 | 54 | 1013.9 |
| 20260903030038 | 21 | 325 | 0.0 | 8.0 | 0.00 | 0.00 | 0.00 | 53 | 1013.9 |
| 20260903024538 | 21 | 360 | 0.0 | 0.0 | 0.00 | 0.00 | 0.00 | 53 | 1014.1 |
| 20260903023042 | 22 | 352 | 0.0 | 8.0 | 0.00 | 0.00 | 0.00 | 52 | 1014.1 |
| 20260903021538 | 23 | 349 | 0.0 | 6.4 | 0.00 | 0.00 | 0.00 | 51 | 1014.0 |
| 20260903020043 | 24 | 338 | 0.0 | 9.7 | 0.00 | 0.00 | 0.00 | 50 | 1014.1 |
| 20260903014548 | 24 | 217 | 0.0 | 9.7 | 0.00 | 0.00 | 0.00 | 50 | 1014.1 |
| 20260903013038 | 25 | 328 | 4.8 | 14.5 | 0.00 | 0.00 | 0.00 | 49 | 1014.2 |
| 20260903011555 | 25 | 7 | 3.2 | 12.9 | 0.00 | 0.00 | 0.00 | 48 | 1014.2 |
| 20260903010038 | 25 | 311 | 1.6 | 12.9 | 0.00 | 0.00 | 0.00 | 49 | 1014.3 |
| 20260903004541 | 25 | 349 | 0.0 | 8.0 | 0.00 | 0.00 | 0.00 | 48 | 1014.3 |
| 20260903003009 | 26 | 344 | 4.8 | 12.9 | 0.00 | 0.00 | 0.00 | 46 | 1014.4 |
| 20260903001548 | 26 | 35 | 0.0 | 12.9 | 0.00 | 0.00 | 0.00 | 46 | 1014.5 |
| 20260903000050 | 26 | 309 | 3.2 | 12.9 | 0.00 | 0.00 | 0.00 | 46 | 1014.5 |
| 20260902234602 | 26 | 342 | 3.2 | 11.3 | 0.00 | 0.00 | 0.00 | 44 | 1014.7 |
| 20260902233102 | 26 | 328 | 1.6 | 17.7 | 0.00 | 0.00 | 0.00 | 45 | 1014.7 |
| 20260902231608 | 26 | 4 | 1.6 | 11.3 | 0.00 | 0.00 | 0.00 | 44 | 1014.8 |
| 20260902224603 | 26 | 356 | 0.0 | 11.3 | 0.00 | 0.00 | 0.00 | 47 | 1015.0 |
| 20260902223107 | 26 | 41 | 3.2 | 17.7 | 0.00 | 0.00 | 0.00 | 47 | 1015.1 |
| 20260902221602 | 26 | 314 | 1.6 | 12.9 | 0.00 | 0.00 | 0.00 | 46 | 1015.1 |
| 20260902220104 | 26 | 14 | 1.6 | 12.9 | 0.00 | 0.00 | 0.00 | 46 | 1015.2 |
| 20260902214602 | 26 | 46 | 3.2 | 14.5 | 0.00 | 0.00 | 0.00 | 44 | 1015.4 |
| 20260902213003 | 26 | 8 | 0.0 | 12.9 | 0.00 | 0.00 | 0.00 | 45 | 1015.6 |
| 20260902211501 | 26 | 322 | 1.6 | 12.9 | 0.00 | 0.00 | 0.00 | 44 | 1015.7 |
| 20260902210002 | 26 | 323 | 1.6 | 11.3 | 0.00 | 0.00 | 0.00 | 45 | 1015.7 |
| 20260902204501 | 26 | 319 | 3.2 | 14.5 | 0.00 | 0.00 | 0.00 | 46 | 1015.8 |
| 20260902203002 | 25 | 262 | 0.0 | 12.9 | 0.00 | 0.00 | 0.00 | 49 | 1016.1 |
| 20260902201502 | 25 | 307 | 1.6 | 9.7 | 0.00 | 0.00 | 0.00 | 47 | 1016.2 |
| 20260902200001 | 25 | 302 | 0.0 | 14.5 | 0.00 | 0.00 | 0.00 | 46 | 1016.4 |
| 20260902194501 | 24 | 295 | 1.6 | 14.5 | 0.00 | 0.00 | 0.00 | 50 | 1016.6 |
| 20260902193002 | 23 | 350 | 1.6 | 12.9 | 0.00 | 0.00 | 0.00 | 51 | 1016.7 |
| 20260902191601 | 24 | 4 | 3.2 | 11.3 | 0.00 | 0.00 | 0.00 | 52 | 1016.9 |
| 20260902184604 | 23 | 314 | 0.0 | 14.5 | 0.00 | 0.00 | 0.00 | 54 | 1017.0 |
| 20260902183102 | 23 | 268 | 0.0 | 9.7 | 0.00 | 0.00 | 0.00 | 54 | 1017.0 |
| 20260902181602 | 23 | 180 | 1.6 | 11.3 | 0.00 | 0.00 | 0.00 | 53 | 1017.0 |
| 20260902180130 | 23 | 340 | 0.0 | 8.0 | 0.00 | 0.00 | 0.00 | 53 | 1017.0 |
| 20260902174601 | 23 | 287 | 0.0 | 4.8 | 0.00 | 0.00 | 0.00 | 57 | 1016.9 |
| 20260902173101 | 22 | 281 | 1.6 | 6.4 | 0.00 | 0.00 | 0.00 | 58 | 1017.0 |
| 20260902171600 | 21 | 219 | 0.0 | 6.4 | 0.00 | 0.00 | 0.00 | 60 | 1017.0 |
| 20260902170005 | 22 | 260 | 0.0 | 6.4 | 0.00 | 0.00 | 0.00 | 61 | 1016.9 |
| 20260902164615 | 21 | 200 | 0.0 | 6.4 | 0.00 | 0.00 | 0.00 | 62 | 1016.7 |
| 20260902163115 | 20 | 296 | 0.0 | 6.4 | 0.00 | 0.00 | 0.00 | 65 | 1016.6 |
| 20260902161615 | 19 | 265 | 0.0 | 1.6 | 0.00 | 0.00 | 0.00 | 69 | 1016.8 |
| 20260902160115 | 18 | 80 | 0.0 | 3.2 | 0.00 | 0.00 | 0.00 | 72 | 1016.8 |
| 20260902154615 | 18 | 209 | 0.0 | 4.8 | 0.00 | 0.00 | 0.00 | 72 | 1016.8 |
| 20260902153115 | 17 | 207 | 0.0 | 4.8 | 0.00 | 0.00 | 0.00 | 74 | 1016.7 |
| 20260902151615 | 16 | 212 | 0.0 | 4.8 | 0.00 | 0.00 | 0.00 | 76 | 1016.6 |
| 20260902150015 | 15 | 165 | 0.0 | 3.2 | 0.00 | 0.00 | 0.00 | 77 | 1016.5 |
| 20260902144527 | 15 | 203 | 0.0 | 6.4 | 0.00 | 0.00 | 0.00 | 78 | 1016.4 |
| 20260902143018 | 15 | 173 | 0.0 | 3.2 | 0.00 | 0.00 | 0.00 | 80 | 1016.3 |
| 20260902141522 | 14 | 166 | 0.0 | 3.2 | 0.00 | 0.00 | 0.00 | 81 | 1016.4 |
| 20260902140018 | 13 | 188 | 0.0 | 3.2 | 0.00 | 0.00 | 0.00 | 82 | 1016.4 |
| 20260902134530 | 13 | 189 | 0.0 | 3.2 | 0.00 | 0.00 | 0.00 | 81 | 1016.3 |
| 20260902133023 | 13 | 209 | 0.0 | 1.6 | 0.00 | 0.00 | 0.00 | 82 | 1016.0 |
| 20260902131530 | 13 | 176 | 0.0 | 3.2 | 0.00 | 0.00 | 0.00 | 82 | 1015.8 |
| 20260902130144 | 13 | 174 | 0.0 | 3.2 | 0.00 | 0.00 | 0.00 | 82 | 1015.8 |
| 20260902124545 | 13 | 265 | 0.0 | 3.2 | 0.00 | 0.00 | 0.00 | 82 | 1015.7 |
| 20260902123053 | 13 | 205 | 0.0 | 3.2 | 0.00 | 0.00 | 0.00 | 82 | 1015.8 |
| 20260902121548 | 13 | 173 | 0.0 | 3.2 | 0.00 | 0.00 | 0.00 | 81 | 1015.7 |
| 20260902120046 | 13 | 173 | 0.0 | 0.0 | 0.00 | 0.00 | 0.00 | 82 | 1015.7 |
| 20260902114545 | 13 | 174 | 0.0 | 1.6 | 0.00 | 0.00 | 0.00 | 82 | 1015.7 |
| 20260902113047 | 13 | 178 | 0.0 | 3.2 | 0.00 | 0.00 | 0.00 | 81 | 1015.7 |
| 20260902111549 | 13 | 186 | 0.0 | 1.6 | 0.00 | 0.00 | 0.00 | 81 | 1015.6 |
| 20260902110047 | 13 | 207 | 0.0 | 4.8 | 0.00 | 0.00 | 0.00 | 81 | 1015.7 |
| 20260902104552 | 13 | 218 | 0.0 | 0.0 | 0.00 | 0.00 | 0.00 | 81 | 1015.8 |
| 20260902103044 | 14 | 218 | 0.0 | 0.0 | 0.00 | 0.00 | 0.00 | 81 | 1015.9 |
| 20260902101544 | 14 | 218 | 0.0 | 1.6 | 0.00 | 0.00 | 0.00 | 80 | 1016.0 |
| 20260902094544 | 14 | 220 | 0.0 | 1.6 | 0.00 | 0.00 | 0.00 | 80 | 1016.1 |
| 20260902093047 | 14 | 219 | 0.0 | 6.4 | 0.00 | 0.00 | 0.00 | 79 | 1016.1 |
| 20260902091559 | 14 | 245 | 0.0 | 3.2 | 0.00 | 0.00 | 0.00 | 80 | 1016.0 |